When you browse on this site, cookies collect data to enhance your experience and personalize the content and advertising you see.
Visit our Privacy Policy to learn more. By continuing to use the site, you agree to this use of cookies and data.

Stündliche Wetter Cavtat

Heute, 4 Juli, Samstag

Zeit Temperatur Niederschläge Wind Luftdruck Luftfeuchtigkeit
00:00 +24°C° 0.1 mm 3 m/S 751 mmHg 74%
01:00 +22°C° 0 mm 3 m/S 752 mmHg 78%
02:00 +22°C° 0 mm 3 m/S 751 mmHg 80%
03:00 +21°C° 0 mm 3 m/S 751 mmHg 82%
04:00 +21°C° 0 mm 3 m/S 751 mmHg 84%
05:00 +22°C° 0 mm 3 m/S 751 mmHg 82%
06:00 +24°C° 0 mm 3 m/S 751 mmHg 81%
07:00 +26°C° 0 mm 3 m/S 752 mmHg 79%
08:00 +27°C° 0.6 mm 2 m/S 751 mmHg 74%
09:00 +29°C° 0.6 mm 2 m/S 751 mmHg 69%
10:00 +30°C° 0.6 mm 2 m/S 751 mmHg 65%
11:00 +30°C° 0.4 mm 2 m/S 751 mmHg 63%
12:00 +31°C° 0.4 mm 2 m/S 751 mmHg 61%
13:00 +31°C° 0.4 mm 1 m/S 751 mmHg 59%
14:00 +31°C° 0.2 mm 2 m/S 751 mmHg 59%
15:00 +31°C° 0.2 mm 2 m/S 750 mmHg 59%
16:00 +31°C° 0.2 mm 2 m/S 750 mmHg 60%
17:00 +29°C° 0 mm 3 m/S 750 mmHg 65%
18:00 +28°C° 0 mm 3 m/S 751 mmHg 70%
19:00 +27°C° 0 mm 4 m/S 751 mmHg 75%
20:00 +26°C° 0 mm 4 m/S 751 mmHg 76%
21:00 +25°C° 0 mm 4 m/S 751 mmHg 77%
22:00 +23°C° 0 mm 4 m/S 751 mmHg 77%
23:00 +22°C° 0 mm 4 m/S 751 mmHg 78%

Morgen, 5 Juli, Sonntag

Zeit Temperatur Niederschläge Wind Luftdruck Luftfeuchtigkeit
00:00 +22°C° 0 mm 3 m/S 751 mmHg 78%
01:00 +21°C° 0 mm 3 m/S 751 mmHg 78%
02:00 +21°C° 0.1 mm 3 m/S 751 mmHg 79%
03:00 +21°C° 0.1 mm 3 m/S 751 mmHg 80%
04:00 +20°C° 0.1 mm 3 m/S 750 mmHg 81%
05:00 +22°C° 0.1 mm 3 m/S 751 mmHg 80%
06:00 +24°C° 0.1 mm 3 m/S 751 mmHg 78%
07:00 +25°C° 0.1 mm 2 m/S 751 mmHg 76%
08:00 +27°C° 0 mm 3 m/S 751 mmHg 71%
09:00 +28°C° 0 mm 3 m/S 751 mmHg 65%
10:00 +30°C° 0 mm 3 m/S 751 mmHg 60%
11:00 +30°C° 0 mm 3 m/S 751 mmHg 58%
12:00 +31°C° 0 mm 3 m/S 751 mmHg 55%
13:00 +33°C° 0 mm 3 m/S 751 mmHg 53%
14:00 +33°C° 0.1 mm 3 m/S 750 mmHg 54%
15:00 +33°C° 0.1 mm 4 m/S 750 mmHg 55%
16:00 +33°C° 0.1 mm 4 m/S 750 mmHg 56%
17:00 +30°C° 0 mm 4 m/S 750 mmHg 63%
18:00 +29°C° 0 mm 4 m/S 750 mmHg 69%
19:00 +27°C° 0 mm 4 m/S 750 mmHg 76%
20:00 +26°C° 0 mm 4 m/S 750 mmHg 77%
21:00 +25°C° 0 mm 3 m/S 750 mmHg 78%
22:00 +24°C° 0 mm 3 m/S 750 mmHg 79%
23:00 +22°C° 0 mm 3 m/S 750 mmHg 80%

übermorgen, 6 Juli, Montag

Zeit Temperatur Niederschläge Wind Luftdruck Luftfeuchtigkeit
00:00 +22°C° 0 mm 3 m/S 750 mmHg 82%
01:00 +21°C° 0 mm 3 m/S 749 mmHg 83%
02:00 +21°C° 0 mm 3 m/S 749 mmHg 83%
03:00 +21°C° 0 mm 3 m/S 749 mmHg 82%
04:00 +20°C° 0 mm 3 m/S 748 mmHg 82%
05:00 +22°C° 0 mm 3 m/S 748 mmHg 80%
06:00 +24°C° 0 mm 3 m/S 749 mmHg 78%
07:00 +25°C° 0 mm 3 m/S 749 mmHg 75%
08:00 +26°C° 0 mm 2 m/S 748 mmHg 70%
09:00 +28°C° 0 mm 2 m/S 748 mmHg 65%
10:00 +29°C° 0 mm 1 m/S 748 mmHg 60%
11:00 +30°C° 0 mm 2 m/S 748 mmHg 58%
12:00 +31°C° 0 mm 2 m/S 747 mmHg 56%
13:00 +32°C° 0 mm 2 m/S 747 mmHg 54%
14:00 +31°C° 0.2 mm 3 m/S 747 mmHg 58%
15:00 +31°C° 0.2 mm 3 m/S 747 mmHg 61%
16:00 +30°C° 0.2 mm 3 m/S 746 mmHg 64%
17:00 +29°C° 0.2 mm 3 m/S 746 mmHg 68%
18:00 +28°C° 0.2 mm 3 m/S 746 mmHg 72%
19:00 +27°C° 0.2 mm 3 m/S 746 mmHg 77%
20:00 +26°C° 0 mm 3 m/S 746 mmHg 78%
21:00 +25°C° 0 mm 3 m/S 746 mmHg 79%
22:00 +24°C° 0 mm 3 m/S 746 mmHg 79%
23:00 +24°C° 0 mm 3 m/S 746 mmHg 80%

7 Juli, Dienstag

Zeit Temperatur Niederschläge Wind Luftdruck Luftfeuchtigkeit
00:00 +22°C° 0 mm 3 m/S 746 mmHg 81%
01:00 +23°C° 0 mm 2 m/S 746 mmHg 81%
02:00 +23°C° 0 mm 2 m/S 746 mmHg 81%
03:00 +21°C° 0 mm 2 m/S 746 mmHg 81%
04:00 +21°C° 0 mm 2 m/S 746 mmHg 82%
05:00 +22°C° 0 mm 3 m/S 746 mmHg 80%
06:00 +25°C° 0 mm 3 m/S 747 mmHg 78%
07:00 +26°C° 0 mm 3 m/S 747 mmHg 76%
08:00 +27°C° 0 mm 3 m/S 748 mmHg 70%
09:00 +27°C° 0 mm 3 m/S 748 mmHg 65%
10:00 +28°C° 0 mm 3 m/S 748 mmHg 60%
11:00 +28°C° 0 mm 3 m/S 748 mmHg 59%
12:00 +29°C° 0 mm 4 m/S 748 mmHg 57%
13:00 +29°C° 0 mm 4 m/S 749 mmHg 56%
14:00 +29°C° 0.1 mm 4 m/S 749 mmHg 57%
15:00 +28°C° 0.1 mm 4 m/S 749 mmHg 58%
16:00 +28°C° 0.1 mm 4 m/S 749 mmHg 60%
17:00 +26°C° 0 mm 4 m/S 749 mmHg 64%
18:00 +25°C° 0 mm 5 m/S 750 mmHg 67%
19:00 +22°C° 0 mm 5 m/S 750 mmHg 71%
20:00 +21°C° 0 mm 5 m/S 751 mmHg 72%
21:00 +19°C° 0 mm 5 m/S 751 mmHg 73%
22:00 +17°C° 0 mm 5 m/S 752 mmHg 74%
23:00 +16°C° 0 mm 5 m/S 752 mmHg 74%

8 Juli, Mittwoch

Zeit Temperatur Niederschläge Wind Luftdruck Luftfeuchtigkeit
00:00 +16°C° 0 mm 5 m/S 752 mmHg 73%
01:00 +15°C° 0 mm 5 m/S 752 mmHg 73%
02:00 +15°C° 0 mm 5 m/S 752 mmHg 73%
03:00 +14°C° 0 mm 5 m/S 752 mmHg 73%
04:00 +14°C° 0 mm 5 m/S 752 mmHg 73%
05:00 +15°C° 0 mm 4 m/S 752 mmHg 70%
06:00 +18°C° 0 mm 4 m/S 753 mmHg 67%
07:00 +19°C° 0 mm 3 m/S 753 mmHg 64%
08:00 +21°C° 0 mm 3 m/S 753 mmHg 58%
09:00 +24°C° 0 mm 2 m/S 753 mmHg 51%
10:00 +26°C° 0 mm 1 m/S 753 mmHg 45%
11:00 +27°C° 0 mm 2 m/S 753 mmHg 44%
12:00 +28°C° 0 mm 2 m/S 753 mmHg 43%
13:00 +29°C° 0 mm 3 m/S 753 mmHg 42%
14:00 +29°C° 0 mm 3 m/S 753 mmHg 44%
15:00 +29°C° 0 mm 4 m/S 753 mmHg 47%
16:00 +29°C° 0 mm 4 m/S 753 mmHg 50%
17:00 +27°C° 0 mm 4 m/S 753 mmHg 56%
18:00 +26°C° 0 mm 4 m/S 753 mmHg 62%
19:00 +23°C° 0 mm 4 m/S 753 mmHg 69%
20:00 +22°C° 0 mm 4 m/S 753 mmHg 68%
21:00 +21°C° 0 mm 3 m/S 754 mmHg 67%
22:00 +20°C° 0 mm 3 m/S 754 mmHg 67%
23:00 +20°C° 0 mm 3 m/S 754 mmHg 68%

9 Juli, Donnerstag

Zeit Temperatur Niederschläge Wind Luftdruck Luftfeuchtigkeit
00:00 +19°C° 0 mm 3 m/S 754 mmHg 69%
01:00 +19°C° 0 mm 3 m/S 754 mmHg 70%
02:00 +18°C° 0 mm 3 m/S 754 mmHg 70%
03:00 +18°C° 0 mm 3 m/S 754 mmHg 70%
04:00 +18°C° 0 mm 2 m/S 753 mmHg 70%
05:00 +19°C° 0 mm 2 m/S 753 mmHg 67%
06:00 +21°C° 0 mm 2 m/S 754 mmHg 64%
07:00 +24°C° 0 mm 1 m/S 754 mmHg 61%
08:00 +26°C° 0 mm 1 m/S 754 mmHg 57%
09:00 +28°C° 0 mm 1 m/S 754 mmHg 52%
10:00 +29°C° 0 mm 1 m/S 754 mmHg 48%
11:00 +30°C° 0 mm 1 m/S 753 mmHg 48%
12:00 +30°C° 0 mm 2 m/S 753 mmHg 48%
13:00 +30°C° 0 mm 2 m/S 753 mmHg 47%
14:00 +30°C° 0 mm 2 m/S 753 mmHg 50%
15:00 +30°C° 0 mm 2 m/S 753 mmHg 52%
16:00 +30°C° 0 mm 2 m/S 753 mmHg 54%
17:00 +28°C° 0 mm 2 m/S 752 mmHg 61%
18:00 +26°C° 0 mm 2 m/S 752 mmHg 67%
19:00 +25°C° 0 mm 2 m/S 752 mmHg 74%
20:00 +24°C° 0 mm 2 m/S 752 mmHg 75%
21:00 +23°C° 0 mm 2 m/S 753 mmHg 75%
22:00 +23°C° 0 mm 2 m/S 753 mmHg 76%
23:00 +21°C° 0 mm 2 m/S 753 mmHg 75%
Mehr zeigen